Time,TemperatureF,DewpointF,PressureIn,WindDirection,WindDirectionDegrees,WindSpeedMPH,WindSpeedGustMPH,Humidity,HourlyPrecipIn,Conditions,Clouds,dailyrainin,SoftwareType,DateUTC
2013-01-23 00:03:00,6.0,-7.0,29.92,WNW,301,6.0,10.0,54,0.00,,,-99.99,,2013-01-23 05:03:00,
2013-01-23 00:12:00,6.0,-7.0,29.92,WNW,301,6.0,10.0,54,0.00,,,-99.99,,2013-01-23 05:12:00,
2013-01-23 00:23:00,6.0,-7.0,29.91,NNW,328,4.0,10.0,53,0.00,,,-99.99,,2013-01-23 05:23:00,
2013-01-23 00:33:00,6.0,-7.0,29.91,NNW,328,4.0,10.0,53,0.00,,,-99.99,,2013-01-23 05:33:00,
2013-01-23 00:43:00,6.0,-7.0,29.91,NNW,328,4.0,10.0,53,0.00,,,-99.99,,2013-01-23 05:43:00,
2013-01-23 00:52:00,5.0,-10.0,29.91,WNW,299,2.0,12.0,50,0.00,,,-99.99,,2013-01-23 05:52:00,
2013-01-23 01:03:00,5.0,-10.0,29.91,WNW,299,2.0,12.0,50,0.00,,,-99.99,,2013-01-23 06:03:00,
2013-01-23 01:13:00,5.0,-10.0,29.91,WNW,299,2.0,12.0,50,0.00,,,-99.99,,2013-01-23 06:13:00,
2013-01-23 01:22:00,5.0,-10.0,29.92,NNW,344,5.0,14.0,50,0.00,,,-99.99,,2013-01-23 06:22:00,
2013-01-23 01:33:00,5.0,-10.0,29.92,NW,304,5.0,13.0,50,0.00,,,-99.99,,2013-01-23 06:33:00,
2013-01-23 01:43:00,5.0,-10.0,29.92,NW,304,5.0,13.0,50,0.00,,,-99.99,,2013-01-23 06:43:00,
2013-01-23 01:52:00,5.0,-9.0,29.93,NW,308,1.0,11.0,51,0.00,,,-99.99,,2013-01-23 06:52:00,
2013-01-23 02:02:00,4.0,-9.0,29.93,NW,315,0.0,8.0,53,0.00,,,-99.99,,2013-01-23 07:02:00,
2013-01-23 02:13:00,4.0,-9.0,29.93,NW,315,0.0,8.0,53,0.00,,,-99.99,,2013-01-23 07:13:00,
2013-01-23 02:23:00,3.0,-9.0,29.94,NW,321,1.0,5.0,55,0.00,,,-99.99,,2013-01-23 07:23:00,
2013-01-23 02:33:00,3.0,-9.0,29.94,WNW,299,0.0,4.0,56,0.00,,,-99.99,,2013-01-23 07:33:00,
2013-01-23 02:42:00,3.0,-9.0,29.94,WNW,299,0.0,4.0,56,0.00,,,-99.99,,2013-01-23 07:42:00,
2013-01-23 02:53:00,2.0,-9.0,29.94,NNW,332,7.0,7.0,58,0.00,,,-99.99,,2013-01-23 07:53:00,
2013-01-23 03:02:00,3.0,-9.0,29.94,NW,309,11.0,11.0,56,0.00,,,-99.99,,2013-01-23 08:02:00,
2013-01-23 03:13:00,3.0,-9.0,29.94,NW,309,11.0,11.0,56,0.00,,,-99.99,,2013-01-23 08:13:00,
2013-01-23 03:23:00,3.0,-10.0,29.94,NW,314,6.0,11.0,53,0.00,,,-99.99,,2013-01-23 08:23:00,
2013-01-23 03:33:00,3.0,-11.0,29.94,WSW,254,5.0,12.0,51,0.00,,,-99.99,,2013-01-23 08:33:00,
2013-01-23 03:43:00,3.0,-11.0,29.94,WSW,254,5.0,12.0,51,0.00,,,-99.99,,2013-01-23 08:43:00,
2013-01-23 03:53:00,3.0,-11.0,29.94,WNW,298,6.0,11.0,51,0.00,,,-99.99,,2013-01-23 08:53:00,
2013-01-23 04:03:00,2.0,-13.0,29.93,NW,311,5.0,15.0,49,0.00,,,-99.99,,2013-01-23 09:03:00,
2013-01-23 04:12:00,2.0,-13.0,29.93,NW,311,5.0,15.0,49,0.00,,,-99.99,,2013-01-23 09:12:00,
2013-01-23 04:22:00,2.0,-13.0,29.93,WNW,292,4.0,14.0,49,0.00,,,-99.99,,2013-01-23 09:22:00,
2013-01-23 04:33:00,2.0,-12.0,29.93,NW,308,2.0,13.0,50,0.00,,,-99.99,,2013-01-23 09:33:00,
2013-01-23 04:43:00,2.0,-12.0,29.93,NW,308,2.0,13.0,50,0.00,,,-99.99,,2013-01-23 09:43:00,
2013-01-23 04:53:00,2.0,-12.0,29.94,WNW,293,0.0,11.0,51,0.00,,,-99.99,,2013-01-23 09:53:00,
2013-01-23 05:03:00,1.0,-12.0,29.95,NW,309,3.0,10.0,52,0.00,,,-99.99,,2013-01-23 10:03:00,
2013-01-23 05:12:00,1.0,-12.0,29.95,NW,309,3.0,10.0,52,0.00,,,-99.99,,2013-01-23 10:12:00,
2013-01-23 05:23:00,1.0,-13.0,29.95,NW,319,12.0,13.0,51,0.00,,,-99.99,,2013-01-23 10:23:00,
2013-01-23 05:33:00,1.0,-13.0,29.95,WNW,295,0.0,13.0,51,0.00,,,-99.99,,2013-01-23 10:33:00,
2013-01-23 05:43:00,1.0,-13.0,29.95,WNW,295,0.0,13.0,51,0.00,,,-99.99,,2013-01-23 10:43:00,
2013-01-23 05:53:00,0.0,-13.0,29.96,WNW,290,2.0,9.0,52,0.00,,,-99.99,,2013-01-23 10:53:00,
2013-01-23 06:03:00,0.0,-13.0,29.96,NW,305,3.0,11.0,54,0.00,,,-99.99,,2013-01-23 11:03:00,
2013-01-23 06:12:00,0.0,-13.0,29.96,NW,305,3.0,11.0,54,0.00,,,-99.99,,2013-01-23 11:12:00,
2013-01-23 06:23:00,0.0,-13.0,29.96,NW,318,6.0,17.0,53,0.00,,,-99.99,,2013-01-23 11:23:00,
2013-01-23 06:34:00,0.0,-13.0,29.97,NW,318,8.0,14.0,52,0.00,,,-99.99,,2013-01-23 11:34:00,
2013-01-23 06:43:00,0.0,-13.0,29.97,NW,318,8.0,14.0,52,0.00,,,-99.99,,2013-01-23 11:43:00,
2013-01-23 06:53:00,0.0,-13.0,29.97,WNW,286,3.0,12.0,52,0.00,,,-99.99,,2013-01-23 11:53:00,
2013-01-23 07:03:00,0.0,-13.0,29.98,WNW,287,4.0,11.0,52,0.00,,,-99.99,,2013-01-23 12:03:00,
2013-01-23 07:13:00,0.0,-13.0,29.98,WNW,287,4.0,11.0,52,0.00,,,-99.99,,2013-01-23 12:13:00,
2013-01-23 07:22:00,0.0,-13.0,29.98,WNW,296,4.0,12.0,52,0.00,,,-99.99,,2013-01-23 12:22:00,
2013-01-23 07:33:00,-1.0,-14.0,29.98,WNW,295,2.0,11.0,53,0.00,,,-99.99,,2013-01-23 12:33:00,
2013-01-23 07:43:00,-1.0,-14.0,29.98,WNW,295,2.0,11.0,53,0.00,,,-99.99,,2013-01-23 12:43:00,
2013-01-23 07:53:00,-1.0,-14.0,29.98,WNW,290,4.0,11.0,53,0.00,,,-99.99,,2013-01-23 12:53:00,
2013-01-23 08:04:00,-1.0,-14.0,29.99,North,360,7.0,13.0,53,0.00,,,-99.99,,2013-01-23 13:04:00,
2013-01-23 08:13:00,-1.0,-14.0,29.99,North,360,7.0,13.0,53,0.00,,,-99.99,,2013-01-23 13:13:00,
2013-01-23 08:23:00,-1.0,-14.0,29.99,WNW,299,11.0,15.0,52,0.00,,,-99.99,,2013-01-23 13:23:00,
2013-01-23 08:33:00,0.0,-13.0,29.99,NW,321,5.0,12.0,52,0.00,,,-99.99,,2013-01-23 13:33:00,
2013-01-23 08:43:00,0.0,-13.0,29.99,NW,321,5.0,12.0,52,0.00,,,-99.99,,2013-01-23 13:43:00,
2013-01-23 08:53:00,0.0,-13.0,29.99,NW,314,6.0,10.0,52,0.00,,,-99.99,,2013-01-23 13:53:00,
2013-01-23 09:03:00,0.0,-14.0,29.99,NW,310,6.0,15.0,51,0.00,,,-99.99,,2013-01-23 14:03:00,
2013-01-23 09:12:00,0.0,-14.0,29.99,NW,310,6.0,15.0,51,0.00,,,-99.99,,2013-01-23 14:12:00,
2013-01-23 09:23:00,0.0,-14.0,29.99,NW,318,5.0,19.0,50,0.00,,,-99.99,,2013-01-23 14:23:00,
2013-01-23 09:33:00,0.0,-15.0,29.98,NW,311,8.0,17.0,49,0.00,,,-99.99,,2013-01-23 14:33:00,
2013-01-23 09:43:00,0.0,-15.0,29.98,NW,311,8.0,17.0,49,0.00,,,-99.99,,2013-01-23 14:43:00,
2013-01-23 09:53:00,1.0,-14.0,29.98,NW,318,5.0,13.0,49,0.00,,,-99.99,,2013-01-23 14:53:00,
2013-01-23 10:03:00,1.0,-14.0,29.98,NW,318,5.0,13.0,49,0.00,,,-99.99,,2013-01-23 15:03:00,
2013-01-23 10:13:00,1.0,-14.0,29.98,NW,318,5.0,13.0,49,0.00,,,-99.99,,2013-01-23 15:13:00,
2013-01-23 10:23:00,1.0,-14.0,29.98,West,270,5.0,17.0,47,0.00,,,-99.99,,2013-01-23 15:23:00,
2013-01-23 10:33:00,2.0,-14.0,29.98,WNW,303,9.0,18.0,47,0.00,,,-99.99,,2013-01-23 15:33:00,
2013-01-23 10:43:00,2.0,-14.0,29.98,WNW,303,9.0,18.0,47,0.00,,,-99.99,,2013-01-23 15:43:00,
2013-01-23 10:53:00,3.0,-13.0,29.97,NW,315,4.0,14.0,46,0.00,,,-99.99,,2013-01-23 15:53:00,
2013-01-23 11:03:00,3.0,-14.0,29.97,NW,322,6.0,20.0,44,0.00,,,-99.99,,2013-01-23 16:03:00,
2013-01-23 11:12:00,3.0,-14.0,29.97,NW,322,6.0,20.0,44,0.00,,,-99.99,,2013-01-23 16:12:00,
2013-01-23 11:23:00,3.0,-14.0,29.95,NW,311,5.0,18.0,44,0.00,,,-99.99,,2013-01-23 16:23:00,
2013-01-23 11:33:00,4.0,-13.0,29.94,NNW,336,4.0,16.0,44,0.00,,,-99.99,,2013-01-23 16:33:00,
2013-01-23 11:42:00,4.0,-13.0,29.94,NNW,336,4.0,16.0,44,0.00,,,-99.99,,2013-01-23 16:42:00,
2013-01-23 11:53:00,4.0,-13.0,29.94,WNW,294,9.0,18.0,44,0.00,,,-99.99,,2013-01-23 16:53:00,
2013-01-23 12:03:00,4.0,-14.0,29.93,NW,305,7.0,23.0,42,0.00,,,-99.99,,2013-01-23 17:03:00,
2013-01-23 12:12:00,4.0,-14.0,29.93,NW,305,7.0,23.0,42,0.00,,,-99.99,,2013-01-23 17:12:00,
2013-01-23 12:23:00,4.0,-14.0,29.92,NW,308,7.0,20.0,41,0.00,,,-99.99,,2013-01-23 17:23:00,
2013-01-23 12:34:00,4.0,-14.0,29.92,NW,318,7.0,21.0,41,0.00,,,-99.99,,2013-01-23 17:34:00,
2013-01-23 12:43:00,4.0,-14.0,29.92,NW,318,7.0,21.0,41,0.00,,,-99.99,,2013-01-23 17:43:00,
2013-01-23 12:53:00,4.0,-15.0,29.91,NW,319,7.0,25.0,40,0.00,,,-99.99,,2013-01-23 17:53:00,
2013-01-23 13:03:00,5.0,-14.0,29.91,WNW,294,9.0,12.0,39,0.00,,,-99.99,,2013-01-23 18:03:00,
2013-01-23 13:12:00,5.0,-14.0,29.91,WNW,294,9.0,12.0,39,0.00,,,-99.99,,2013-01-23 18:12:00,
2013-01-23 13:23:00,6.0,-13.0,29.91,NW,322,5.0,16.0,40,0.00,,,-99.99,,2013-01-23 18:23:00,
2013-01-23 13:33:00,6.0,-13.0,29.91,NW,322,5.0,16.0,40,0.00,,,-99.99,,2013-01-23 18:33:00,
2013-01-23 13:43:00,6.0,-13.0,29.91,WNW,295,8.0,16.0,40,0.00,,,-99.99,,2013-01-23 18:43:00,
2013-01-23 13:53:00,5.0,-14.0,29.91,NW,322,4.0,21.0,40,0.00,,,-99.99,,2013-01-23 18:53:00,
2013-01-23 14:03:00,5.0,-15.0,29.91,NW,319,5.0,18.0,38,0.00,,,-99.99,,2013-01-23 19:03:00,
2013-01-23 14:13:00,5.0,-15.0,29.91,NW,319,5.0,18.0,38,0.00,,,-99.99,,2013-01-23 19:13:00,
2013-01-23 14:23:00,6.0,-14.0,29.91,WNW,297,1.0,18.0,39,0.00,,,-99.99,,2013-01-23 19:23:00,
2013-01-23 14:33:00,6.0,-14.0,29.91,West,277,12.0,20.0,38,0.00,,,-99.99,,2013-01-23 19:33:00,
2013-01-23 14:43:00,6.0,-14.0,29.91,West,277,12.0,20.0,38,0.00,,,-99.99,,2013-01-23 19:43:00,
2013-01-23 14:53:00,5.0,-15.0,29.91,NW,322,3.0,17.0,38,0.00,,,-99.99,,2013-01-23 19:53:00,
2013-01-23 15:03:00,5.0,-15.0,29.92,NW,310,6.0,13.0,38,0.00,,,-99.99,,2013-01-23 20:03:00,
2013-01-23 15:13:00,5.0,-15.0,29.92,NW,310,6.0,13.0,38,0.00,,,-99.99,,2013-01-23 20:13:00,
2013-01-23 15:23:00,5.0,-15.0,29.92,WNW,299,4.0,14.0,38,0.00,,,-99.99,,2013-01-23 20:23:00,
2013-01-23 15:33:00,4.0,-16.0,29.92,WNW,293,7.0,19.0,38,0.00,,,-99.99,,2013-01-23 20:33:00,
2013-01-23 15:43:00,4.0,-16.0,29.92,WNW,293,7.0,19.0,38,0.00,,,-99.99,,2013-01-23 20:43:00,
2013-01-23 15:53:00,4.0,-15.0,29.92,NNW,332,4.0,18.0,39,0.00,,,-99.99,,2013-01-23 20:53:00,
2013-01-23 16:03:00,3.0,-16.0,29.92,WNW,291,8.0,15.0,39,0.00,,,-99.99,,2013-01-23 21:03:00,
2013-01-23 16:12:00,3.0,-16.0,29.92,WNW,291,8.0,15.0,39,0.00,,,-99.99,,2013-01-23 21:12:00,
2013-01-23 16:23:00,3.0,-16.0,29.92,WNW,295,3.0,18.0,39,0.00,,,-99.99,,2013-01-23 21:23:00,
2013-01-23 16:33:00,2.0,-17.0,29.93,WNW,297,0.0,19.0,40,0.00,,,-99.99,,2013-01-23 21:33:00,
2013-01-23 16:43:00,2.0,-17.0,29.93,WNW,297,0.0,19.0,40,0.00,,,-99.99,,2013-01-23 21:43:00,
2013-01-23 16:53:00,2.0,-16.0,29.93,NW,320,5.0,10.0,41,0.00,,,-99.99,,2013-01-23 21:53:00,
2013-01-23 17:03:00,1.0,-17.0,29.94,NW,323,4.0,14.0,42,0.00,,,-99.99,,2013-01-23 22:03:00,
2013-01-23 17:12:00,1.0,-17.0,29.94,NW,323,4.0,14.0,42,0.00,,,-99.99,,2013-01-23 22:12:00,
2013-01-23 17:23:00,1.0,-16.0,29.94,WNW,300,2.0,9.0,43,0.00,,,-99.99,,2013-01-23 22:23:00,
2013-01-23 17:33:00,1.0,-16.0,29.94,WNW,293,2.0,12.0,44,0.00,,,-99.99,,2013-01-23 22:33:00,
2013-01-23 17:42:00,1.0,-16.0,29.94,WNW,293,2.0,12.0,44,0.00,,,-99.99,,2013-01-23 22:42:00,
2013-01-23 17:53:00,1.0,-16.0,29.94,WNW,287,5.0,11.0,44,0.00,,,-99.99,,2013-01-23 22:53:00,
2013-01-23 18:03:00,1.0,-16.0,29.95,West,274,3.0,12.0,44,0.00,,,-99.99,,2013-01-23 23:03:00,
2013-01-23 18:13:00,1.0,-16.0,29.95,West,274,3.0,12.0,44,0.00,,,-99.99,,2013-01-23 23:13:00,
2013-01-23 18:23:00,0.0,-16.0,29.95,WNW,303,3.0,14.0,45,0.00,,,-99.99,,2013-01-23 23:23:00,
2013-01-23 18:33:00,0.0,-16.0,29.96,NW,312,1.0,9.0,46,0.00,,,-99.99,,2013-01-23 23:33:00,
2013-01-23 18:43:00,0.0,-16.0,29.96,NW,312,1.0,9.0,46,0.00,,,-99.99,,2013-01-23 23:43:00,
2013-01-23 18:53:00,0.0,-15.0,29.96,WNW,299,0.0,10.0,47,0.00,,,-99.99,,2013-01-23 23:53:00,
2013-01-23 19:03:00,0.0,-15.0,29.96,WNW,300,2.0,8.0,48,0.00,,,-99.99,,2013-01-24 00:03:00,
2013-01-23 19:12:00,0.0,-15.0,29.96,WNW,300,2.0,8.0,48,0.00,,,-99.99,,2013-01-24 00:12:00,
2013-01-23 19:22:00,0.0,-15.0,29.96,West,272,5.0,8.0,49,0.00,,,-99.99,,2013-01-24 00:22:00,
2013-01-23 19:33:00,0.0,-15.0,29.96,WNW,287,4.0,13.0,47,0.00,,,-99.99,,2013-01-24 00:33:00,
2013-01-23 19:43:00,0.0,-15.0,29.96,WNW,287,4.0,13.0,47,0.00,,,-99.99,,2013-01-24 00:43:00,
2013-01-23 19:53:00,0.0,-15.0,29.96,NW,321,5.0,14.0,47,0.00,,,-99.99,,2013-01-24 00:53:00,
2013-01-23 20:03:00,0.0,-15.0,29.96,WNW,297,10.0,16.0,48,0.00,,,-99.99,,2013-01-24 01:03:00,
2013-01-23 20:12:00,0.0,-15.0,29.96,WNW,297,10.0,16.0,48,0.00,,,-99.99,,2013-01-24 01:12:00,
2013-01-23 20:23:00,0.0,-15.0,29.96,NW,313,3.0,16.0,48,0.00,,,-99.99,,2013-01-24 01:23:00,
2013-01-23 20:33:00,-1.0,-16.0,29.96,WNW,297,2.0,15.0,49,0.00,,,-99.99,,2013-01-24 01:33:00,
2013-01-23 20:43:00,-1.0,-16.0,29.96,WNW,297,2.0,15.0,49,0.00,,,-99.99,,2013-01-24 01:43:00,
2013-01-23 20:52:00,-1.0,-16.0,29.96,NW,321,3.0,12.0,49,0.00,,,-99.99,,2013-01-24 01:52:00,
2013-01-23 21:03:00,-1.0,-15.0,29.97,WNW,283,1.0,12.0,50,0.00,,,-99.99,,2013-01-24 02:03:00,
2013-01-23 21:12:00,-1.0,-15.0,29.97,WNW,283,1.0,12.0,50,0.00,,,-99.99,,2013-01-24 02:12:00,
2013-01-23 21:23:00,-1.0,-15.0,29.96,NW,304,7.0,12.0,50,0.00,,,-99.99,,2013-01-24 02:23:00,
2013-01-23 21:33:00,-1.0,-15.0,29.96,NW,304,7.0,12.0,50,0.00,,,-99.99,,2013-01-24 02:33:00,
2013-01-23 21:42:00,-1.0,-15.0,29.96,NW,304,7.0,12.0,50,0.00,,,-99.99,,2013-01-24 02:42:00,
2013-01-23 21:52:00,-1.0,-15.0,29.96,NW,304,7.0,12.0,50,0.00,,,-99.99,,2013-01-24 02:52:00,
2013-01-23 22:03:00,-2.0,-16.0,29.95,NNW,331,3.0,12.0,51,0.00,,,-99.99,,2013-01-24 03:03:00,
2013-01-23 22:12:00,-2.0,-16.0,29.95,NNW,331,3.0,12.0,51,0.00,,,-99.99,,2013-01-24 03:12:00,
2013-01-23 22:22:00,-2.0,-15.0,29.96,WNW,291,4.0,14.0,52,0.00,,,-99.99,,2013-01-24 03:22:00,
2013-01-23 22:33:00,-2.0,-15.0,29.95,NW,326,14.0,14.0,52,0.00,,,-99.99,,2013-01-24 03:33:00,
2013-01-23 22:43:00,-2.0,-15.0,29.95,NW,326,14.0,14.0,52,0.00,,,-99.99,,2013-01-24 03:43:00,
2013-01-23 22:52:00,-2.0,-15.0,29.96,WNW,293,6.0,14.0,52,0.00,,,-99.99,,2013-01-24 03:52:00,
2013-01-23 23:03:00,-3.0,-16.0,29.96,WNW,303,6.0,12.0,53,0.00,,,-99.99,,2013-01-24 04:03:00,
2013-01-23 23:12:00,-3.0,-16.0,29.96,WNW,303,6.0,12.0,53,0.00,,,-99.99,,2013-01-24 04:12:00,
2013-01-23 23:22:00,-3.0,-16.0,29.95,NW,323,6.0,14.0,53,0.00,,,-99.99,,2013-01-24 04:22:00,
2013-01-23 23:33:00,-3.0,-16.0,29.96,NW,320,2.0,13.0,53,0.00,,,-99.99,,2013-01-24 04:33:00,
2013-01-23 23:42:00,-3.0,-16.0,29.96,NW,320,2.0,13.0,53,0.00,,,-99.99,,2013-01-24 04:42:00,
2013-01-23 23:52:00,-3.0,-16.0,29.96,NW,320,2.0,13.0,53,0.00,,,-99.99,,2013-01-24 04:52:00,